sat.trackr.live / text

‹ back to catalog

STARLINK-32013

NORAD 60103 · 2024-117N

PAYLOAD ACTIVE UNKNOWN

§ Identity

Operator
Country
US
Launch date
2024-06-23
Launch site
AFETR
Launch vehicle
Mass (kg)
RCS (m²)

Purposes: comms

External: N2YO · Heavens-Above · Gunter

§ Orbital elements

Epoch: 2026-05-25T02:30:00.624096Z

Period
94.11 min
Inclination
53.1621°
Eccentricity
0.0001337
Mean motion
15.30196829 rev/d
Perigee alt
474.3 km
Apogee alt
476.1 km
Semi-major
6,853.4 km
B*
5.7081e-5
RAAN
42.3442°
Arg perigee
97.0141°
Mean anomaly
263.1012°
Rev number
10,858

§ Raw data

STARLINK-320131 60103U 24117N   26145.10417389  .00001332  00000+0  57081-4 0  99992 60103  53.1621  42.3442 0001337  97.0141 263.1012 15.30196829108586

JSON: /api/v1/satellites/60103 · /tle

For live sub-satellite position, see the globe view (requires WebGL).

§ Visibility from observer

Set your observer location to see the next 7 days of passes ≥ 10°. The values pass through the URL so the page stays shareable.

No JS? Fill the form by hand. The geolocation button needs JavaScript.